LUCH (OLYMP) (40258 NORAD) Tracking and Keplerian Element Data

This shows tracking and keplerian element data for the satellite.

Feedback or suggestion? Click here.




ElementValue
Catalog40258
NameLUCH (OLYMP)
Epoch Orbit2260
Epoch Day332.64426356
Epoch Year2020
RAAN302.7622
Inclination0.0108
Eccentricity5.46E-05
Argument of Perigee40.5516
Mean Anonmoly312.5815
Mean Motion1.00269863
Decay Rate-1.1E-07
L11 40258U 14058A 20332.64426356 -.00000011 00000-0 00000+0 0 9995
L22 40258 0.0108 302.7622 0000546 40.5516 312.5815 1.00269863 22608

Live tracking and technical data element details for LUCH (OLYMP) (NORAD 40258). LUCH (OLYMP) can be tracked NOW for your location showing map with azimuth and elevation plus other details from your city location.

Track the satellite on the map from your city or location and see movement details for azimuth, elevation, latitude, longitude, range, height, and movement on the map or in text.







IsCatalogInMostPopularTable: catalog: 40258, numindb: 508
Update: records affected: 1



GetName: 40258 LUCH (OLYMP)

Hit Count: updated at: Sun, 29 Nov 2020 08:15:04 GMT